When you browse on this site, cookies collect data to enhance your experience and personalize the content and advertising you see.
Visit our Privacy Policy to learn more. By continuing to use the site, you agree to this use of cookies and data.
  • In United Kingdom
  • List of Countries
  • For 7 days
  • Water Temperature
  • Satellite Maps
  • Weather Map
  • Weather Widgets
  • user-avatar
    Login

    Hourly Weather Siemieniczki

    Today, 24 January, Thursday

    Time Temperature Precipitation Wind Pressure Humidity
    00:00 -9°C° 0 mm 4 mps 749 mmHg 69%
    01:00 -9°C° 0 mm 4 mps 749 mmHg 69%
    02:00 -9°C° 0 mm 4 mps 749 mmHg 69%
    03:00 -9°C° 0 mm 4 mps 750 mmHg 69%
    04:00 -9°C° 0 mm 4 mps 750 mmHg 70%
    05:00 -9°C° 0 mm 4 mps 750 mmHg 71%
    06:00 -9°C° 0 mm 4 mps 750 mmHg 71%
    07:00 -8°C° 0 mm 3 mps 751 mmHg 70%
    08:00 -9°C° 0 mm 4 mps 751 mmHg 69%
    09:00 -9°C° 0 mm 4 mps 751 mmHg 68%
    10:00 -8°C° 0 mm 5 mps 752 mmHg 66%
    11:00 -8°C° 0 mm 5 mps 752 mmHg 64%
    12:00 -8°C° 0 mm 5 mps 752 mmHg 63%
    13:00 -7°C° 0 mm 5 mps 752 mmHg 61%
    14:00 -7°C° 0 mm 5 mps 752 mmHg 61%
    15:00 -8°C° 0 mm 5 mps 751 mmHg 62%
    16:00 -8°C° 0 mm 5 mps 751 mmHg 62%
    17:00 -8°C° 0 mm 5 mps 751 mmHg 64%
    18:00 -8°C° 0 mm 5 mps 751 mmHg 66%
    19:00 -8°C° 0 mm 5 mps 751 mmHg 68%
    20:00 -8°C° 0 mm 5 mps 752 mmHg 69%
    21:00 -10°C° 0 mm 5 mps 752 mmHg 70%
    22:00 -10°C° 0 mm 5 mps 752 mmHg 71%
    23:00 -10°C° 0 mm 5 mps 752 mmHg 71%

    Tomorrow, 25 January, Friday

    Time Temperature Precipitation Wind Pressure Humidity
    00:00 -10°C° 0 mm 5 mps 752 mmHg 71%
    01:00 -9°C° 0 mm 4 mps 752 mmHg 70%
    02:00 -9°C° 0.2 mm 4 mps 751 mmHg 74%
    03:00 -9°C° 0.2 mm 4 mps 751 mmHg 79%
    04:00 -9°C° 0.2 mm 4 mps 751 mmHg 83%
    05:00 -9°C° 0.2 mm 4 mps 751 mmHg 83%
    06:00 -9°C° 0.2 mm 4 mps 751 mmHg 83%
    07:00 -9°C° 0.2 mm 4 mps 751 mmHg 84%
    08:00 -8°C° 0.1 mm 3 mps 751 mmHg 83%
    09:00 -7°C° 0.1 mm 3 mps 751 mmHg 81%
    10:00 -7°C° 0.1 mm 3 mps 751 mmHg 80%
    11:00 -6°C° 0.1 mm 2 mps 751 mmHg 78%
    12:00 -6°C° 0.1 mm 2 mps 751 mmHg 76%
    13:00 -3°C° 0.1 mm 1 mps 751 mmHg 74%
    14:00 -3°C° 0 mm 1 mps 751 mmHg 75%
    15:00 -3°C° 0 mm 1 mps 751 mmHg 75%
    16:00 -3°C° 0 mm 1 mps 751 mmHg 76%
    17:00 -3°C° 0 mm 1 mps 751 mmHg 77%
    18:00 -5°C° 0 mm 2 mps 751 mmHg 79%
    19:00 -5°C° 0 mm 2 mps 751 mmHg 80%
    20:00 -7°C° 0 mm 3 mps 751 mmHg 80%
    21:00 -7°C° 0 mm 3 mps 750 mmHg 81%
    22:00 -7°C° 0 mm 3 mps 750 mmHg 81%
    23:00 -7°C° 0 mm 3 mps 750 mmHg 80%

    Day after tomorrow, 26 January, Saturday

    Time Temperature Precipitation Wind Pressure Humidity
    00:00 -7°C° 0 mm 3 mps 749 mmHg 80%
    01:00 -7°C° 0 mm 3 mps 749 mmHg 79%
    02:00 -7°C° 0 mm 3 mps 748 mmHg 78%
    03:00 -7°C° 0 mm 3 mps 747 mmHg 78%
    04:00 -7°C° 0 mm 3 mps 747 mmHg 77%
    05:00 -8°C° 0.1 mm 4 mps 746 mmHg 79%
    06:00 -7°C° 0.1 mm 4 mps 745 mmHg 81%
    07:00 -7°C° 0.1 mm 4 mps 744 mmHg 82%
    08:00 -7°C° 0.3 mm 5 mps 743 mmHg 84%
    09:00 -6°C° 0.3 mm 5 mps 743 mmHg 86%
    10:00 -6°C° 0.3 mm 5 mps 742 mmHg 88%
    11:00 -5°C° 0.4 mm 5 mps 741 mmHg 89%
    12:00 -4°C° 0.4 mm 5 mps 740 mmHg 90%
    13:00 -3°C° 0.4 mm 4 mps 740 mmHg 90%
    14:00 -2°C° 0.2 mm 5 mps 740 mmHg 91%
    15:00 -2°C° 0.2 mm 5 mps 740 mmHg 92%
    16:00 -1°C° 0.2 mm 5 mps 740 mmHg 93%
    17:00 -2°C° 0.1 mm 5 mps 740 mmHg 93%
    18:00 -2°C° 0.1 mm 4 mps 740 mmHg 93%
    19:00 -3°C° 0.1 mm 4 mps 741 mmHg 93%
    20:00 -4°C° 0 mm 3 mps 741 mmHg 93%
    21:00 -4°C° 0 mm 2 mps 741 mmHg 94%
    22:00 -5°C° 0 mm 2 mps 742 mmHg 95%
    23:00 -3°C° 0 mm 1 mps 742 mmHg 95%

    27 January, Sunday

    Time Temperature Precipitation Wind Pressure Humidity
    00:00 -4°C° 0 mm 1 mps 742 mmHg 95%
    01:00 -4°C° 0 mm 1 mps 742 mmHg 95%
    02:00 -4°C° 0 mm 1 mps 742 mmHg 95%
    03:00 -4°C° 0 mm 1 mps 742 mmHg 95%
    04:00 -4°C° 0 mm 1 mps 742 mmHg 95%
    05:00 -6°C° 0 mm 2 mps 741 mmHg 94%
    06:00 -7°C° 0 mm 3 mps 741 mmHg 94%
    07:00 -6°C° 0 mm 3 mps 741 mmHg 93%
    08:00 -7°C° 0.1 mm 4 mps 740 mmHg 93%
    09:00 -5°C° 0.1 mm 4 mps 740 mmHg 92%
    10:00 -6°C° 0.1 mm 5 mps 740 mmHg 92%
    11:00 -5°C° 0.4 mm 5 mps 739 mmHg 92%
    12:00 -4°C° 0.4 mm 5 mps 739 mmHg 93%
    13:00 -4°C° 0.4 mm 5 mps 738 mmHg 94%
    14:00 -2°C° 0.5 mm 4 mps 738 mmHg 94%
    15:00 -2°C° 0.5 mm 4 mps 738 mmHg 95%
    16:00 -1°C° 0.5 mm 3 mps 737 mmHg 96%
    17:00 0°C° 0.1 mm 3 mps 737 mmHg 96%
    18:00 0°C° 0.1 mm 3 mps 737 mmHg 96%
    19:00 +1°C° 0.1 mm 2 mps 737 mmHg 97%
    20:00 +1°C° 0.2 mm 2 mps 737 mmHg 96%
    21:00 0°C° 0.2 mm 3 mps 737 mmHg 96%
    22:00 0°C° 0.2 mm 3 mps 737 mmHg 95%
    23:00 0°C° 0.1 mm 3 mps 736 mmHg 94%

    28 January, Monday

    Time Temperature Precipitation Wind Pressure Humidity
    00:00 0°C° 0.1 mm 3 mps 736 mmHg 93%
    01:00 0°C° 0.1 mm 3 mps 736 mmHg 92%
    02:00 0°C° 0.4 mm 3 mps 736 mmHg 92%
    03:00 0°C° 0.4 mm 3 mps 736 mmHg 91%
    04:00 0°C° 0.4 mm 3 mps 735 mmHg 91%
    05:00 0°C° 0.4 mm 3 mps 735 mmHg 92%
    06:00 0°C° 0.4 mm 3 mps 735 mmHg 92%
    07:00 0°C° 0.4 mm 3 mps 735 mmHg 93%
    08:00 0°C° 0.2 mm 3 mps 735 mmHg 94%
    09:00 0°C° 0.2 mm 3 mps 736 mmHg 96%
    10:00 0°C° 0.2 mm 3 mps 736 mmHg 98%
    11:00 +1°C° 0.2 mm 2 mps 736 mmHg 98%
    12:00 +1°C° 0.2 mm 2 mps 736 mmHg 99%
    13:00 +1°C° 0.2 mm 2 mps 735 mmHg 99%
    14:00 +1°C° 0.2 mm 2 mps 735 mmHg 99%
    15:00 +1°C° 0.2 mm 2 mps 735 mmHg 98%
    16:00 +1°C° 0.2 mm 2 mps 736 mmHg 97%
    17:00 +1°C° 0 mm 2 mps 736 mmHg 95%
    18:00 -1°C° 0 mm 2 mps 736 mmHg 94%
    19:00 -1°C° 0 mm 2 mps 736 mmHg 93%
    20:00 -1°C° 0 mm 2 mps 736 mmHg 93%
    21:00 -1°C° 0 mm 2 mps 736 mmHg 93%
    22:00 -1°C° 0 mm 2 mps 736 mmHg 93%
    23:00 -1°C° 0.1 mm 3 mps 736 mmHg 93%

    29 January, Tuesday

    Time Temperature Precipitation Wind Pressure Humidity
    00:00 -1°C° 0.1 mm 3 mps 736 mmHg 93%
    01:00 -1°C° 0.1 mm 4 mps 736 mmHg 93%
    02:00 -1°C° 0 mm 5 mps 737 mmHg 92%
    03:00 -2°C° 0 mm 6 mps 737 mmHg 92%
    04:00 -2°C° 0 mm 7 mps 738 mmHg 91%
    05:00 -4°C° 0.1 mm 8 mps 739 mmHg 89%
    06:00 -4°C° 0.1 mm 9 mps 739 mmHg 87%
    07:00 -5°C° 0.1 mm 10 mps 740 mmHg 84%
    08:00 -5°C° 0 mm 9 mps 741 mmHg 84%
    09:00 -5°C° 0 mm 9 mps 742 mmHg 83%
    10:00 -5°C° 0 mm 9 mps 743 mmHg 82%
    11:00 -5°C° 0 mm 8 mps 744 mmHg 81%
    12:00 -5°C° 0 mm 8 mps 745 mmHg 80%
    13:00 -4°C° 0 mm 7 mps 745 mmHg 78%
    14:00 -5°C° 0 mm 6 mps 746 mmHg 80%
    15:00 -5°C° 0 mm 5 mps 746 mmHg 81%
    16:00 -4°C° 0 mm 4 mps 747 mmHg 83%
    17:00 -5°C° 0 mm 3 mps 747 mmHg 85%
    18:00 -5°C° 0 mm 3 mps 747 mmHg 87%
    19:00 -5°C° 0 mm 3 mps 748 mmHg 89%
    20:00 -5°C° 0 mm 3 mps 748 mmHg 88%
    21:00 -5°C° 0 mm 3 mps 748 mmHg 88%
    22:00 -5°C° 0 mm 4 mps 748 mmHg 87%
    23:00 -5°C° 0 mm 3 mps 748 mmHg 87%
    Show more